Wind_Speed
17 17 18 19 19 19 19 20 21 21 21 21 20 20 21 21 22 22 23 23 24 24 24 25 25 25 25 26 26 27 28 30 32 33 33 33 33 33 34 34 34 32 33 33
16 16 17 17 18 18 19 19 20 20 20 19 18 19 19 20 20 21 21 21 21 22 22 22 21 22 23 23 23 24 25 26 27 28 28 28 28 27 26 25 24 23 23 23
15 15 16 17 17 18 18 19 19 19 18 17 17 18 18 19 19 19 19 19 19 19 19 19 19 20 20 21 21 21 22 23 23 24 24 24 23 22 21 19 17 17 16 16
14 15 16 16 16 17 17 18 18 18 17 16 17 17 17 17 17 17 17 17 17 17 16 17 17 17 18 18 18 19 19 20 20 20 20 19 19 17 15 13 12 11 11 13
15 15 15 15 16 16 17 17 17 17 17 16 16 16 15 15 16 16 16 16 15 15 16 16 16 16 16 16 16 16 16 17 17 16 16 16 15 13 12 11 9 8 8 9
15 15 16 15 16 16 16 17 17 16 16 16 16 15 15 15 15 14 14 15 15 15 15 15 15 15 15 14 14 14 14 14 14 13 13 13 12 11 11 10 9 8 8 8
16 16 16 16 17 17 17 17 16 16 16 15 15 15 15 15 14 14 14 14 14 14 15 15 14 15 14 14 13 13 13 12 12 12 12 12 12 11 10 10 9 9 9 10
17 17 17 17 18 17 17 17 16 16 16 16 16 15 15 14 14 14 14 14 14 14 14 14 14 14 15 14 13 13 13 12 12 11 11 11 11 11 11 11 11 11 12 13
17 18 18 18 18 18 18 18 18 17 17 17 16 16 15 14 14 14 14 14 14 14 13 13 14 14 14 14 13 13 12 12 11 11 11 12 12 12 12 13 13 14 15 16
17 18 18 18 18 18 19 19 19 19 18 17 17 17 16 15 15 14 14 14 14 14 14 14 13 13 13 13 12 12 11 11 11 11 12 13 13 14 14 15 16 16 17 18
18 19 19 19 19 19 20 20 20 20 19 19 18 17 17 16 16 15 15 15 15 15 15 14 14 13 13 12 12 12 12 12 12 13 13 14 15 15 16 17 18 19 20 21
18 19 19 20 20 20 21 21 21 21 21 20 19 19 18 17 17 16 16 16 15 15 15 14 14 13 13 13 13 13 13 13 14 14 15 16 17 17 18 19 20 21 22 24
19 19 20 20 20 21 21 22 21 21 21 21 20 20 19 18 18 18 18 18 17 16 15 15 15 14 14 13 14 14 15 15 16 17 17 18 18 19 20 21 22 23 25 26
19 20 21 21 21 21 21 22 22 22 22 22 21 21 20 20 19 19 19 19 18 18 17 17 16 15 15 15 15 16 16 17 18 18 19 20 20 21 22 24 25 26 27 28
20 21 21 22 22 22 22 22 23 23 22 22 22 22 21 21 20 20 20 20 19 19 19 18 18 18 18 17 18 18 18 19 19 20 21 21 22 23 24 25 26 27 28 30
20 20 21 22 23 23 23 23 23 23 23 23 23 22 22 21 21 21 20 20 19 20 20 20 20 19 19 19 20 20 20 21 21 22 23 23 24 25 26 27 28 29 30 32
19 20 21 22 22 23 23 23 23 23 23 23 23 23 23 23 22 21 21 21 20 20 21 21 21 21 21 21 22 22 22 23 23 23 24 25 25 26 27 28 29 30 31 33
19 19 20 20 21 22 23 23 23 23 23 23 23 23 23 23 22 22 22 21 21 21 21 22 22 23 23 23 23 23 24 24 24 25 25 26 27 28 28 29 30 31 33 34
18 19 19 19 20 21 22 22 23 23 23 23 23 24 24 24 23 23 23 22 22 22 22 22 23 23 24 24 24 24 25 25 25 26 27 27 28 29 29 30 31 33 34 35
17 18 18 19 19 19 20 21 21 22 22 22 23 23 24 24 24 24 24 23 23 23 24 24 24 24 24 24 24 25 25 26 26 27 27 28 29 29 30 31 32 34 35 37
16 17 17 18 18 19 19 20 20 21 21 21 22 22 23 23 24 24 24 24 24 25 25 25 25 25 25 25 24 25 26 26 27 27 28 29 30 30 31 32 33 35 37 38
15 16 17 17 17 18 18 19 19 20 20 21 21 21 22 22 23 24 24 24 25 25 25 25 25 25 25 25 26 26 27 27 28 28 29 30 30 30 31 33 35 36 38 39
15 15 16 17 17 18 18 19 19 20 20 21 21 21 22 22 22 23 24 24 25 25 25 25 26 26 26 27 27 27 27 28 28 29 29 30 30 31 33 34 36 37 39 40
17 17 16 17 17 18 19 20 20 20 21 21 22 22 23 23 23 24 24 25 25 26 26 26 26 27 27 27 27 28 28 28 29 29 30 30 31 32 34 35 37 38 40 41
19 19 20 20 20 20 20 20 21 22 22 22 23 23 23 24 24 24 25 25 26 26 27 27 27 28 28 28 28 29 29 29 30 30 30 31 32 33 35 36 37 39 40 41
20 20 21 22 22 22 23 23 23 23 23 24 24 24 25 25 25 25 26 27 27 28 28 28 28 29 29 29 30 30 30 31 31 31 32 32 33 35 36 37 38 39 40 42
21 22 22 22 23 23 24 24 24 25 25 25 25 26 26 27 27 28 28 29 29 29 30 30 30 30 30 31 31 31 31 31 32 33 33 34 34 35 36 37 38 39 40 41
Wind_Direction
200 202 203 205 206 206 204 204 206 210 213 216 219 223 228 233 237 241 245 249 253 256 260 264 268 271 274 278 282 287 291 294 297 299 300 301 302 300 297 292 285 278 272 266
198 200 202 203 203 203 204 205 209 213 218 221 224 227 232 236 240 243 246 249 254 258 262 265 267 271 275 279 284 290 295 299 301 304 305 305 307 308 303 297 288 279 274 268
200 202 202 203 203 203 205 209 212 217 222 226 229 232 236 240 242 244 248 251 256 259 262 263 268 273 276 281 286 293 298 302 306 310 312 311 311 312 307 301 293 283 279 272
205 205 206 205 205 207 210 214 217 222 226 230 234 239 241 242 244 247 251 254 255 258 261 263 268 275 280 284 288 293 300 305 310 314 318 319 319 317 314 311 304 292 279 274
210 210 210 210 212 214 216 219 221 225 229 233 238 242 242 241 244 249 253 253 254 258 262 266 271 276 281 285 289 295 302 306 310 315 322 327 328 326 324 322 314 304 291 279
215 216 217 217 218 219 220 223 224 228 233 235 237 239 240 241 244 249 253 254 255 259 263 269 273 277 281 284 289 295 302 308 310 314 323 329 330 330 330 328 325 320 311 302
221 222 223 222 223 223 224 225 227 231 233 234 236 237 240 243 246 249 251 254 256 260 265 271 274 277 280 283 285 293 300 305 312 313 317 320 322 325 329 330 328 323 317 309
226 227 227 226 226 227 229 230 230 231 232 234 236 236 240 244 246 248 250 254 257 262 268 272 274 277 279 282 284 288 294 298 306 314 317 320 321 323 325 325 324 319 314 309
230 231 231 229 229 230 231 232 233 234 234 234 236 236 240 243 246 249 252 254 257 263 269 271 275 277 279 280 282 285 288 294 300 305 312 316 319 321 323 323 321 318 314 311
231 231 232 231 231 232 233 234 235 235 235 236 237 237 239 243 246 250 254 256 260 263 267 271 275 276 277 279 282 283 286 291 297 302 308 312 315 317 318 318 317 316 315 313
234 234 234 233 233 234 235 236 236 236 236 237 238 240 242 245 248 252 254 258 261 264 266 269 272 274 274 277 280 282 285 290 297 303 307 310 312 313 314 314 315 314 314 314
235 236 236 236 235 236 235 236 237 237 237 239 241 244 245 246 248 251 255 258 261 263 264 266 267 269 272 276 278 281 285 290 296 301 305 308 309 310 312 313 314 314 314 314
237 238 239 240 239 237 237 237 238 238 239 241 243 246 247 249 251 254 255 258 261 261 262 263 265 267 271 276 278 282 286 290 294 298 303 306 307 308 310 312 313 313 314 314
239 240 241 241 241 240 239 239 239 240 241 243 245 246 248 250 253 255 256 257 259 260 261 262 263 265 270 275 279 282 286 291 294 298 302 304 306 307 309 311 312 313 314 314
242 242 242 243 243 243 243 241 241 242 244 245 245 246 248 250 253 256 257 257 258 259 260 260 262 266 270 275 279 282 287 291 294 298 301 303 305 307 308 309 310 312 312 313
245 245 244 244 244 244 244 243 243 244 245 245 245 245 247 249 252 255 257 258 258 259 259 260 264 267 270 275 279 282 286 290 293 296 300 303 305 307 308 309 310 311 312 314
247 246 245 244 244 244 245 245 245 245 246 245 245 246 248 250 252 254 257 258 258 258 258 261 264 266 270 274 278 281 285 289 292 295 298 301 304 306 308 308 310 311 313 314
247 247 246 246 244 244 245 245 245 246 247 246 246 247 249 250 251 254 256 257 258 258 259 261 264 267 269 274 277 280 284 287 291 294 297 300 303 305 307 308 309 311 313 315
249 248 248 247 247 246 246 246 246 247 248 247 248 249 249 250 252 255 256 258 258 259 261 262 265 267 269 273 276 279 283 286 290 293 296 298 302 304 306 307 309 311 313 315
249 249 249 248 247 247 247 247 247 247 247 247 249 250 250 251 253 255 256 258 259 260 262 264 265 267 269 272 276 280 283 287 290 292 295 298 301 304 305 307 310 312 313 315
248 248 249 250 249 248 248 247 246 246 247 247 249 252 252 253 254 256 257 257 259 261 263 264 266 268 269 273 277 280 284 287 289 291 294 298 301 303 305 308 310 312 314 315
248 248 248 250 252 251 249 248 248 248 248 249 251 252 254 255 255 256 256 257 259 261 263 265 266 268 270 273 277 279 282 285 288 290 294 297 300 302 305 308 310 312 314 315
252 253 254 255 255 254 253 252 252 251 252 252 253 254 255 256 258 259 258 258 259 262 264 265 266 268 270 273 276 278 282 285 288 290 293 296 299 302 305 308 310 312 314 315
256 257 259 260 260 259 258 257 256 256 256 256 257 258 259 259 260 261 260 260 260 263 265 266 266 268 270 273 275 279 282 285 288 291 293 296 299 303 305 308 310 312 314 315
260 261 261 262 262 262 261 261 261 260 260 260 261 261 262 262 262 262 261 261 262 265 266 266 268 270 271 272 276 279 282 285 288 290 293 296 299 302 304 307 310 312 313 315
265 266 266 264 263 263 262 262 262 263 263 263 264 264 265 265 265 265 264 265 265 266 267 268 269 270 271 273 275 278 281 284 287 290 293 295 299 302 304 307 309 312 314 316
267 268 268 267 266 265 264 263 263 264 265 266 266 266 267 267 268 268 267 267 268 268 268 268 269 270 271 273 275 277 280 283 286 289 292 295 298 301 304 307 310 312 314 316
Height
5624 5627 5630 5634 5637 5640 5643 5647 5650 5653 5655 5658 5661 5663 5666 5667 5669 5671 5672 5673 5674 5675 5675 5675 5675 5674 5673 5671 5669 5667 5663 5659 5655 5649 5643 5637 5630 5623 5616 5610 5605 5602 5601 5601
5623 5626 5628 5631 5634 5637 5641 5644 5647 5649 5652 5654 5657 5659 5661 5663 5664 5665 5666 5667 5668 5668 5669 5668 5668 5667 5666 5664 5662 5659 5656 5652 5647 5641 5635 5629 5623 5616 5610 5604 5600 5597 5595 5595
5622 5624 5627 5630 5633 5635 5638 5641 5643 5646 5649 5651 5653 5655 5656 5658 5659 5660 5661 5661 5662 5662 5662 5662 5662 5661 5659 5657 5655 5652 5649 5645 5640 5635 5629 5623 5617 5612 5606 5601 5597 5594 5593 5592
5620 5623 5625 5630 5630 5633 5635 5638 5640 5642 5645 5647 5648 5650 5651 5653 5654 5655 5655 5656 5656 5657 5657 5656 5656 5654 5653 5651 5649 5646 5643 5639 5635 5630 5624 5619 5613 5608 5604 5600 5596 5593 5592 5592
5618 5620 5623 5626 5627 5629 5632 5634 5636 5639 5641 5642 5644 5645 5647 5648 5649 5649 5650 5650 5651 5651 5651 5651 5650 5649 5647 5645 5643 5640 5637 5634 5630 5626 5621 5616 5611 5607 5603 5599 5596 5594 5592 5592
5616 5618 5620 5624 5625 5626 5630 5631 5633 5635 5637 5638 5640 5642 5643 5643 5644 5645 5645 5645 5646 5646 5646 5645 5644 5643 5642 5640 5638 5635 5633 5629 5626 5622 5618 5614 5610 5606 5603 5599 5596 5594 5593 5592
5612 5614 5617 5619 5621 5623 5627 5629 5630 5631 5633 5634 5635 5637 5638 5639 5639 5640 5640 5641 5641 5641 5641 5640 5639 5638 5637 5635 5633 5631 5628 5626 5622 5619 5616 5612 5609 5605 5602 5599 5597 5594 5592 5591
5609 5611 5615 5615 5617 5620 5622 5623 5625 5627 5628 5630 5631 5632 5633 5634 5635 5635 5636 5636 5636 5636 5636 5635 5634 5633 5632 5630 5628 5626 5624 5622 5619 5616 5613 5610 5607 5604 5601 5598 5596 5594 5592 5590
5606 5609 5609 5611 5613 5615 5617 5619 5621 5622 5624 5625 5627 5628 5629 5630 5630 5631 5631 5631 5631 5631 5631 5630 5629 5628 5627 5626 5624 5622 5620 5618 5616 5613 5611 5608 5605 5602 5600 5597 5594 5592 5590 5587
5601 5603 5604 5606 5608 5610 5612 5614 5616 5618 5619 5621 5622 5623 5624 5625 5626 5626 5626 5627 5627 5627 5626 5626 5625 5624 5622 5621 5620 5618 5616 5614 5612 5610 5608 5605 5602 5600 5597 5594 5592 5589 5587 5584
5596 5598 5600 5602 5603 5605 5607 5609 5611 5612 5614 5616 5617 5618 5619 5620 5621 5621 5622 5622 5622 5622 5621 5621 5620 5619 5618 5617 5616 5614 5613 5611 5609 5607 5604 5602 5599 5597 5594 5591 5588 5586 5583 5579
5592 5593 5595 5597 5598 5600 5602 5603 5605 5607 5609 5610 5612 5613 5614 5615 5616 5616 5617 5617 5617 5617 5617 5616 5616 5615 5614 5613 5611 5610 5609 5607 5605 5603 5600 5598 5595 5593 5590 5587 5584 5581 5577 5574
5586 5588 5589 5591 5593 5594 5596 5598 5600 5601 5603 5605 5606 5607 5608 5609 5610 5611 5611 5611 5612 5612 5612 5611 5611 5610 5609 5608 5607 5606 5604 5603 5601 5598 5596 5593 5591 5588 5585 5582 5579 5575 5572 5568
5580 5582 5584 5585 5587 5588 5590 5592 5593 5595 5597 5598 5600 5601 5602 5603 5604 5605 5605 5606 5606 5606 5606 5606 5605 5605 5604 5603 5602 5601 5599 5598 5596 5593 5591 5588 5586 5583 5580 5576 5573 5570 5566 5562
5574 5576 5578 5579 5581 5582 5584 5585 5587 5589 5590 5592 5593 5595 5596 5597 5598 5598 5599 5599 5600 5600 5600 5600 5600 5599 5599 5598 5597 5596 5594 5592 5590 5588 5585 5583 5580 5577 5574 5570 5567 5563 5559 5555
5568 5570 5571 5573 5574 5576 5577 5579 5581 5582 5584 5585 5587 5588 5589 5590 5591 5592 5593 5593 5593 5594 5594 5594 5594 5593 5593 5592 5591 5590 5588 5586 5584 5582 5580 5577 5574 5571 5568 5564 5560 5557 5552 5548
5562 5563 5565 5566 5568 5569 5571 5572 5574 5575 5577 5578 5580 5581 5582 5584 5585 5585 5586 5586 5587 5587 5587 5587 5587 5587 5586 5585 5584 5583 5582 5580 5578 5576 5573 5570 5567 5564 5561 5557 5553 5549 5545 5540
5556 5557 5558 5560 5561 5562 5564 5565 5567 5568 5570 5571 5573 5574 5575 5576 5577 5578 5579 5579 5580 5580 5580 5580 5580 5580 5579 5578 5577 5576 5575 5573 5571 5569 5566 5564 5561 5557 5554 5550 5546 5542 5537 5532
5550 5551 5552 5553 5554 5556 5557 5558 5560 5561 5563 5564 5565 5567 5568 5569 5570 5571 5571 5572 5573 5573 5573 5573 5573 5572 5572 5571 5570 5569 5568 5566 5564 5562 5559 5556 5553 5550 5546 5542 5538 5534 5529 5524
5544 5545 5546 5547 5548 5550 5551 5552 5553 5554 5556 5557 5558 5559 5560 5561 5562 5563 5564 5565 5565 5566 5566 5566 5565 5565 5565 5564 5563 5561 5560 5558 5556 5554 5552 5549 5546 5542 5539 5535 5530 5526 5521 5516
5539 5540 5540 5541 5542 5543 5544 5546 5547 5548 5549 5550 5551 5552 5553 5554 5555 5556 5556 5557 5558 5558 5558 5558 5558 5557 5557 5556 5555 5554 5552 5551 5549 5546 5544 5541 5538 5534 5531 5527 5522 5518 5513 5507
5533 5534 5535 5536 5537 5538 5538 5539 5540 5541 5542 5543 5544 5545 5546 5546 5547 5548 5548 5549 5549 5550 5550 5550 5550 5549 5549 5548 5547 5546 5544 5543 5541 5538 5536 5533 5530 5526 5523 5519 5514 5509 5504 5498
5528 5529 5530 5530 5531 5532 5532 5533 5534 5535 5536 5536 5537 5538 5538 5539 5539 5540 5541 5541 5541 5542 5542 5542 5541 5541 5540 5540 5539 5537 5536 5534 5532 5530 5527 5525 5521 5518 5514 5510 5505 5500 5495 5489
5523 5523 5524 5524 5525 5526 5526 5527 5528 5528 5529 5529 5530 5531 5531 5531 5532 5532 5532 5533 5533 5533 5533 5533 5533 5532 5532 5531 5530 5529 5527 5526 5524 5521 5519 5516 5513 5509 5506 5501 5497 5491 5486 5480
5517 5517 5518 5518 5519 5519 5520 5520 5521 5521 5522 5522 5522 5523 5523 5523 5524 5524 5524 5524 5524 5524 5524 5524 5524 5523 5523 5522 5521 5520 5519 5517 5515 5513 5510 5507 5504 5501 5497 5492 5488 5482 5477 5470
5510 5510 5511 5511 5511 5512 5512 5513 5513 5513 5514 5514 5514 5515 5515 5515 5515 5515 5515 5515 5515 5515 5515 5515 5515 5514 5514 5513 5512 5511 5509 5508 5506 5504 5501 5498 5495 5492 5488 5483 5479 5473 5467 5461
5503 5503 5503 5503 5504 5504 5504 5504 5505 5505 5505 5506 5506 5506 5506 5506 5506 5506 5506 5506 5506 5506 5505 5505 5505 5504 5504 5503 5502 5501 5500 5498 5496 5494 5492 5489 5486 5482 5479 5474 5469 5464 5458 5452